Location: Dover
(48.8500°N, 53.9833°W)
Time: 02:36:16
(UTC+00:00)

YAOGAN 1 - Pass Details

Date: 14 November 2025
Orbit: 605 x 607 km, 97.8° (Epoch: 13 December)

Event Time Altitude Azimuth Distance (km) Brightness Sun altitude
Rises 20:41:00 0° 123° (ESE) 2,860 5.6 -7.6°
Reaches altitude 10° 20:43:42 10° 104° (ESE) 1,961 4.6 -8.0°
Maximum altitude 20:46:37 18° 61° (ENE) 1,499 3.9 -8.4°
Drops below altitude 10° 20:49:32 10° 18° (NNE) 1,970 4.8 -8.9°
Sets 20:52:15 0° 360° (N) 2,879 5.8 -9.3°
